owner,sensor,date,latitude,longitude,sea_surface_height_above_sea_level,qcFlag 
WAVCIS,ioos:station:WAVCIS:CSI16:1,2010-11-01T00:00:00Z,29.4012,-89.0355,8.692,11111222 
WAVCIS,ioos:station:WAVCIS:CSI16:1,2010-11-01T01:00:00Z,29.4012,-89.0355,8.725,11111222 
WAVCIS,ioos:station:WAVCIS:CSI16:1,2010-11-01T02:00:00Z,29.4012,-89.0355,8.75,11111222 
WAVCIS,ioos:station:WAVCIS:CSI16:1,2010-11-01T03:00:00Z,29.4012,-89.0355,8.77,11111222 
WAVCIS,ioos:station:WAVCIS:CSI16:1,2010-11-01T04:00:00Z,29.4012,-89.0355,8.784,11111222 
WAVCIS,ioos:station:WAVCIS:CSI16:1,2010-11-01T05:00:00Z,29.4012,-89.0355,8.793,11111222 
WAVCIS,ioos:station:WAVCIS:CSI16:1,2010-11-01T06:00:00Z,29.4012,-89.0355,8.809,11111222 
WAVCIS,ioos:station:WAVCIS:CSI16:1,2010-11-01T07:00:00Z,29.4012,-89.0355,8.821,11111222 
WAVCIS,ioos:station:WAVCIS:CSI16:1,2010-11-01T08:00:00Z,29.4012,-89.0355,8.813,11111222 
WAVCIS,ioos:station:WAVCIS:CSI16:1,2010-11-01T09:00:00Z,29.4012,-89.0355,8.814,11111222 
WAVCIS,ioos:station:WAVCIS:CSI16:1,2010-11-01T10:00:00Z,29.4012,-89.0355,8.809,11111222 
WAVCIS,ioos:station:WAVCIS:CSI16:1,2010-11-01T11:00:00Z,29.4012,-89.0355,8.813,11111222 
WAVCIS,ioos:station:WAVCIS:CSI16:1,2010-11-01T12:00:00Z,29.4012,-89.0355,8.807,11111222 
WAVCIS,ioos:station:WAVCIS:CSI16:1,2010-11-01T13:00:00Z,29.4012,-89.0355,8.801,11111222 
WAVCIS,ioos:station:WAVCIS:CSI16:1,2010-11-01T14:00:00Z,29.4012,-89.0355,8.784,11111222 
WAVCIS,ioos:station:WAVCIS:CSI16:1,2010-11-01T15:00:00Z,29.4012,-89.0355,8.751,11111222 
WAVCIS,ioos:station:WAVCIS:CSI16:1,2010-11-01T16:00:00Z,29.4012,-89.0355,8.727,11111222 
WAVCIS,ioos:station:WAVCIS:CSI16:1,2010-11-01T17:00:00Z,29.4012,-89.0355,8.696,11111222 
WAVCIS,ioos:station:WAVCIS:CSI16:1,2010-11-01T18:00:00Z,29.4012,-89.0355,8.686,11111222 
WAVCIS,ioos:station:WAVCIS:CSI16:1,2010-11-01T19:00:00Z,29.4012,-89.0355,8.685,11111222 
WAVCIS,ioos:station:WAVCIS:CSI16:1,2010-11-01T20:00:00Z,29.4012,-89.0355,8.681,11111222 
WAVCIS,ioos:station:WAVCIS:CSI16:1,2010-11-01T21:00:00Z,29.4012,-89.0355,8.68,11111222 
WAVCIS,ioos:station:WAVCIS:CSI16:1,2010-11-01T22:00:00Z,29.4012,-89.0355,8.696,11111222 
WAVCIS,ioos:station:WAVCIS:CSI16:1,2010-11-01T23:00:00Z,29.4012,-89.0355,8.719,11111222 
WAVCIS,ioos:station:WAVCIS:CSI16:1,2010-11-02T00:00:00Z,29.4012,-89.0355,8.752,11111222 
WAVCIS,ioos:station:WAVCIS:CSI16:1,2010-11-02T01:00:00Z,29.4012,-89.0355,8.763,11111222 
WAVCIS,ioos:station:WAVCIS:CSI16:1,2010-11-02T02:00:00Z,29.4012,-89.0355,8.767,11111222 
WAVCIS,ioos:station:WAVCIS:CSI16:1,2010-11-02T03:00:00Z,29.4012,-89.0355,8.765,11111222 
WAVCIS,ioos:station:WAVCIS:CSI16:1,2010-11-02T04:00:00Z,29.4012,-89.0355,8.745,11111222 
WAVCIS,ioos:station:WAVCIS:CSI16:1,2010-11-02T05:00:00Z,29.4012,-89.0355,8.72,11111222 
WAVCIS,ioos:station:WAVCIS:CSI16:1,2010-11-02T06:00:00Z,29.4012,-89.0355,8.701,11111222 
WAVCIS,ioos:station:WAVCIS:CSI16:1,2010-11-02T07:00:00Z,29.4012,-89.0355,8.682,11111222 
WAVCIS,ioos:station:WAVCIS:CSI16:1,2010-11-02T08:00:00Z,29.4012,-89.0355,8.656,11111222 
WAVCIS,ioos:station:WAVCIS:CSI16:1,2010-11-02T09:00:00Z,29.4012,-89.0355,8.69,11111222 
WAVCIS,ioos:station:WAVCIS:CSI16:1,2010-11-02T10:00:00Z,29.4012,-89.0355,8.675,11111222 
WAVCIS,ioos:station:WAVCIS:CSI16:1,2010-11-02T11:00:00Z,29.4012,-89.0355,8.67,11111222 
WAVCIS,ioos:station:WAVCIS:CSI16:1,2010-11-02T12:00:00Z,29.4012,-89.0355,8.672,11111222 
WAVCIS,ioos:station:WAVCIS:CSI16:1,2010-11-02T13:00:00Z,29.4012,-89.0355,8.694,11111222 
WAVCIS,ioos:station:WAVCIS:CSI16:1,2010-11-02T14:00:00Z,29.4012,-89.0355,8.707,11111222 
WAVCIS,ioos:station:WAVCIS:CSI16:1,2010-11-02T15:00:00Z,29.4012,-89.0355,8.681,11111222 
WAVCIS,ioos:station:WAVCIS:CSI16:1,2010-11-02T16:00:00Z,29.4012,-89.0355,8.685,11111222 
WAVCIS,ioos:station:WAVCIS:CSI16:1,2010-11-02T17:00:00Z,29.4012,-89.0355,8.684,11111222 
WAVCIS,ioos:station:WAVCIS:CSI16:1,2010-11-02T18:00:00Z,29.4012,-89.0355,8.687,11111222 
WAVCIS,ioos:station:WAVCIS:CSI16:1,2010-11-02T19:00:00Z,29.4012,-89.0355,8.685,11111222 
WAVCIS,ioos:station:WAVCIS:CSI16:1,2010-11-02T20:00:00Z,29.4012,-89.0355,8.714,11111222 
WAVCIS,ioos:station:WAVCIS:CSI16:1,2010-11-02T21:00:00Z,29.4012,-89.0355,8.769,11111222 
WAVCIS,ioos:station:WAVCIS:CSI16:1,2010-11-02T22:00:00Z,29.4012,-89.0355,8.711,11111222 
WAVCIS,ioos:station:WAVCIS:CSI16:1,2010-11-02T23:00:00Z,29.4012,-89.0355,8.75,11111222 
WAVCIS,ioos:station:WAVCIS:CSI16:1,2010-11-03T00:00:00Z,29.4012,-89.0355,8.809,11111222 
WAVCIS,ioos:station:WAVCIS:CSI16:1,2010-11-03T01:00:00Z,29.4012,-89.0355,8.816,11111222 
WAVCIS,ioos:station:WAVCIS:CSI16:1,2010-11-03T02:00:00Z,29.4012,-89.0355,8.82,11111222 
WAVCIS,ioos:station:WAVCIS:CSI16:1,2010-11-03T03:00:00Z,29.4012,-89.0355,8.829,11111222 
WAVCIS,ioos:station:WAVCIS:CSI16:1,2010-11-03T04:00:00Z,29.4012,-89.0355,8.838,11111222 
WAVCIS,ioos:station:WAVCIS:CSI16:1,2010-11-03T05:00:00Z,29.4012,-89.0355,8.782,11111222 
WAVCIS,ioos:station:WAVCIS:CSI16:1,2010-11-03T06:00:00Z,29.4012,-89.0355,8.764,11111222 
WAVCIS,ioos:station:WAVCIS:CSI16:1,2010-11-03T07:00:00Z,29.4012,-89.0355,8.741,11111222 
WAVCIS,ioos:station:WAVCIS:CSI16:1,2010-11-03T08:00:00Z,29.4012,-89.0355,8.736,11111222 
WAVCIS,ioos:station:WAVCIS:CSI16:1,2010-11-03T09:00:00Z,29.4012,-89.0355,8.717,11111222 
WAVCIS,ioos:station:WAVCIS:CSI16:1,2010-11-03T10:00:00Z,29.4012,-89.0355,8.67,11111222 
WAVCIS,ioos:station:WAVCIS:CSI16:1,2010-11-03T11:00:00Z,29.4012,-89.0355,8.672,11111222 
WAVCIS,ioos:station:WAVCIS:CSI16:1,2010-11-03T12:00:00Z,29.4012,-89.0355,8.709,11111222 
WAVCIS,ioos:station:WAVCIS:CSI16:1,2010-11-03T13:00:00Z,29.4012,-89.0355,8.77,11111222 
WAVCIS,ioos:station:WAVCIS:CSI16:1,2010-11-03T14:00:00Z,29.4012,-89.0355,8.719,11111222 
WAVCIS,ioos:station:WAVCIS:CSI16:1,2010-11-03T15:00:00Z,29.4012,-89.0355,8.714,11111222 
WAVCIS,ioos:station:WAVCIS:CSI16:1,2010-11-03T16:00:00Z,29.4012,-89.0355,8.735,11111222 
WAVCIS,ioos:station:WAVCIS:CSI16:1,2010-11-03T17:00:00Z,29.4012,-89.0355,8.784,11111222 
WAVCIS,ioos:station:WAVCIS:CSI16:1,2010-11-03T18:00:00Z,29.4012,-89.0355,8.76,11111222 
WAVCIS,ioos:station:WAVCIS:CSI16:1,2010-11-03T19:00:00Z,29.4012,-89.0355,8.761,11111222 
WAVCIS,ioos:station:WAVCIS:CSI16:1,2010-11-03T20:00:00Z,29.4012,-89.0355,8.794,11111222 
WAVCIS,ioos:station:WAVCIS:CSI16:1,2010-11-03T21:00:00Z,29.4012,-89.0355,8.819,11111222 
WAVCIS,ioos:station:WAVCIS:CSI16:1,2010-11-03T22:00:00Z,29.4012,-89.0355,8.831,11111222 
WAVCIS,ioos:station:WAVCIS:CSI16:1,2010-11-03T23:00:00Z,29.4012,-89.0355,8.86,11111222 
WAVCIS,ioos:station:WAVCIS:CSI16:1,2010-11-04T00:00:00Z,29.4012,-89.0355,8.895,11111222 
WAVCIS,ioos:station:WAVCIS:CSI16:1,2010-11-04T01:00:00Z,29.4012,-89.0355,8.913,11111222 
WAVCIS,ioos:station:WAVCIS:CSI16:1,2010-11-04T02:00:00Z,29.4012,-89.0355,8.908,11111222 
WAVCIS,ioos:station:WAVCIS:CSI16:1,2010-11-04T03:00:00Z,29.4012,-89.0355,8.898,11111222 
WAVCIS,ioos:station:WAVCIS:CSI16:1,2010-11-04T04:00:00Z,29.4012,-89.0355,8.857,11111222 
WAVCIS,ioos:station:WAVCIS:CSI16:1,2010-11-04T05:00:00Z,29.4012,-89.0355,8.807,11111222 
WAVCIS,ioos:station:WAVCIS:CSI16:1,2010-11-04T06:00:00Z,29.4012,-89.0355,8.745,11111222 
WAVCIS,ioos:station:WAVCIS:CSI16:1,2010-11-04T07:00:00Z,29.4012,-89.0355,8.706,11111222 
WAVCIS,ioos:station:WAVCIS:CSI16:1,2010-11-04T08:00:00Z,29.4012,-89.0355,8.671,11111222 
WAVCIS,ioos:station:WAVCIS:CSI16:1,2010-11-04T09:00:00Z,29.4012,-89.0355,8.604,11111222 
WAVCIS,ioos:station:WAVCIS:CSI16:1,2010-11-04T10:00:00Z,29.4012,-89.0355,8.591,11111222 
WAVCIS,ioos:station:WAVCIS:CSI16:1,2010-11-04T11:00:00Z,29.4012,-89.0355,8.643,11111222 
WAVCIS,ioos:station:WAVCIS:CSI16:1,2010-11-04T12:00:00Z,29.4012,-89.0355,8.659,11111222 
WAVCIS,ioos:station:WAVCIS:CSI16:1,2010-11-04T13:00:00Z,29.4012,-89.0355,8.684,11111222 
WAVCIS,ioos:station:WAVCIS:CSI16:1,2010-11-04T14:00:00Z,29.4012,-89.0355,8.759,11111222 
WAVCIS,ioos:station:WAVCIS:CSI16:1,2010-11-04T15:00:00Z,29.4012,-89.0355,8.806,11111222 
WAVCIS,ioos:station:WAVCIS:CSI16:1,2010-11-04T16:00:00Z,29.4012,-89.0355,8.844,11111222 
WAVCIS,ioos:station:WAVCIS:CSI16:1,2010-11-04T17:00:00Z,29.4012,-89.0355,8.825,11111222 
WAVCIS,ioos:station:WAVCIS:CSI16:1,2010-11-04T18:00:00Z,29.4012,-89.0355,8.856,11111222 
WAVCIS,ioos:station:WAVCIS:CSI16:1,2010-11-04T19:00:00Z,29.4012,-89.0355,8.871,11111222 
WAVCIS,ioos:station:WAVCIS:CSI16:1,2010-11-04T20:00:00Z,29.4012,-89.0355,8.916,11111222 
WAVCIS,ioos:station:WAVCIS:CSI16:1,2010-11-04T21:00:00Z,29.4012,-89.0355,8.924,11111222 
WAVCIS,ioos:station:WAVCIS:CSI16:1,2010-11-04T22:00:00Z,29.4012,-89.0355,8.931,11111222 
WAVCIS,ioos:station:WAVCIS:CSI16:1,2010-11-04T23:00:00Z,29.4012,-89.0355,8.975,11111222 
WAVCIS,ioos:station:WAVCIS:CSI16:1,2010-11-05T00:00:00Z,29.4012,-89.0355,8.978,11111222 
WAVCIS,ioos:station:WAVCIS:CSI16:1,2010-11-05T01:00:00Z,29.4012,-89.0355,8.988,11111222 
WAVCIS,ioos:station:WAVCIS:CSI16:1,2010-11-05T02:00:00Z,29.4012,-89.0355,8.967,11111222 
WAVCIS,ioos:station:WAVCIS:CSI16:1,2010-11-05T03:00:00Z,29.4012,-89.0355,8.929,11111222 
WAVCIS,ioos:station:WAVCIS:CSI16:1,2010-11-05T04:00:00Z,29.4012,-89.0355,8.887,11111222 
WAVCIS,ioos:station:WAVCIS:CSI16:1,2010-11-05T05:00:00Z,29.4012,-89.0355,8.781,11111222 
WAVCIS,ioos:station:WAVCIS:CSI16:1,2010-11-05T06:00:00Z,29.4012,-89.0355,8.695,11111222 
WAVCIS,ioos:station:WAVCIS:CSI16:1,2010-11-05T07:00:00Z,29.4012,-89.0355,8.629,11111222 
WAVCIS,ioos:station:WAVCIS:CSI16:1,2010-11-05T08:00:00Z,29.4012,-89.0355,8.547,11111222 
WAVCIS,ioos:station:WAVCIS:CSI16:1,2010-11-05T09:00:00Z,29.4012,-89.0355,8.485,11111222 
WAVCIS,ioos:station:WAVCIS:CSI16:1,2010-11-05T10:00:00Z,29.4012,-89.0355,8.459,11111222 
WAVCIS,ioos:station:WAVCIS:CSI16:1,2010-11-05T11:00:00Z,29.4012,-89.0355,8.411,11111222 
WAVCIS,ioos:station:WAVCIS:CSI16:1,2010-11-05T12:00:00Z,29.4012,-89.0355,8.416,11111222 
WAVCIS,ioos:station:WAVCIS:CSI16:1,2010-11-05T13:00:00Z,29.4012,-89.0355,8.425,11111222 
WAVCIS,ioos:station:WAVCIS:CSI16:1,2010-11-05T14:00:00Z,29.4012,-89.0355,8.493,11111222 
WAVCIS,ioos:station:WAVCIS:CSI16:1,2010-11-05T15:00:00Z,29.4012,-89.0355,8.519,11111222 
WAVCIS,ioos:station:WAVCIS:CSI16:1,2010-11-05T16:00:00Z,29.4012,-89.0355,8.58,11111222 
WAVCIS,ioos:station:WAVCIS:CSI16:1,2010-11-05T17:00:00Z,29.4012,-89.0355,8.618,11111222 
WAVCIS,ioos:station:WAVCIS:CSI16:1,2010-11-05T18:00:00Z,29.4012,-89.0355,8.626,11111222 
WAVCIS,ioos:station:WAVCIS:CSI16:1,2010-11-05T19:00:00Z,29.4012,-89.0355,8.684,11111222 
WAVCIS,ioos:station:WAVCIS:CSI16:1,2010-11-05T20:00:00Z,29.4012,-89.0355,8.714,11111222 
WAVCIS,ioos:station:WAVCIS:CSI16:1,2010-11-05T21:00:00Z,29.4012,-89.0355,8.75,11111222 
WAVCIS,ioos:station:WAVCIS:CSI16:1,2010-11-05T22:00:00Z,29.4012,-89.0355,8.795,11111222 
WAVCIS,ioos:station:WAVCIS:CSI16:1,2010-11-05T23:00:00Z,29.4012,-89.0355,8.828,11111222 
WAVCIS,ioos:station:WAVCIS:CSI16:1,2010-11-06T00:00:00Z,29.4012,-89.0355,8.867,11111222 
WAVCIS,ioos:station:WAVCIS:CSI16:1,2010-11-06T01:00:00Z,29.4012,-89.0355,8.893,11111222 
WAVCIS,ioos:station:WAVCIS:CSI16:1,2010-11-06T02:00:00Z,29.4012,-89.0355,8.898,11111222 
WAVCIS,ioos:station:WAVCIS:CSI16:1,2010-11-06T03:00:00Z,29.4012,-89.0355,8.889,11111222 
WAVCIS,ioos:station:WAVCIS:CSI16:1,2010-11-06T04:00:00Z,29.4012,-89.0355,8.857,11111222 
WAVCIS,ioos:station:WAVCIS:CSI16:1,2010-11-06T05:00:00Z,29.4012,-89.0355,8.787,11111222 
WAVCIS,ioos:station:WAVCIS:CSI16:1,2010-11-06T06:00:00Z,29.4012,-89.0355,8.678,11111222 
WAVCIS,ioos:station:WAVCIS:CSI16:1,2010-11-06T07:00:00Z,29.4012,-89.0355,8.554,11111222 
WAVCIS,ioos:station:WAVCIS:CSI16:1,2010-11-06T08:00:00Z,29.4012,-89.0355,8.422,11111222 
WAVCIS,ioos:station:WAVCIS:CSI16:1,2010-11-06T09:00:00Z,29.4012,-89.0355,8.33,11111222 
WAVCIS,ioos:station:WAVCIS:CSI16:1,2010-11-06T10:00:00Z,29.4012,-89.0355,8.285,11111222 
WAVCIS,ioos:station:WAVCIS:CSI16:1,2010-11-06T11:00:00Z,29.4012,-89.0355,8.277,11111222 
WAVCIS,ioos:station:WAVCIS:CSI16:1,2010-11-06T12:00:00Z,29.4012,-89.0355,8.271,11111222 
WAVCIS,ioos:station:WAVCIS:CSI16:1,2010-11-06T13:00:00Z,29.4012,-89.0355,8.286,11111222 
WAVCIS,ioos:station:WAVCIS:CSI16:1,2010-11-06T14:00:00Z,29.4012,-89.0355,8.313,11111222 
WAVCIS,ioos:station:WAVCIS:CSI16:1,2010-11-06T15:00:00Z,29.4012,-89.0355,8.347,11111222 
WAVCIS,ioos:station:WAVCIS:CSI16:1,2010-11-06T16:00:00Z,29.4012,-89.0355,8.395,11111222 
WAVCIS,ioos:station:WAVCIS:CSI16:1,2010-11-06T17:00:00Z,29.4012,-89.0355,8.435,11111222 
WAVCIS,ioos:station:WAVCIS:CSI16:1,2010-11-06T18:00:00Z,29.4012,-89.0355,8.477,11111222 
WAVCIS,ioos:station:WAVCIS:CSI16:1,2010-11-06T19:00:00Z,29.4012,-89.0355,8.531,11111222 
WAVCIS,ioos:station:WAVCIS:CSI16:1,2010-11-06T20:00:00Z,29.4012,-89.0355,8.578,11111222 
WAVCIS,ioos:station:WAVCIS:CSI16:1,2010-11-06T21:00:00Z,29.4012,-89.0355,8.634,11111222 
WAVCIS,ioos:station:WAVCIS:CSI16:1,2010-11-06T22:00:00Z,29.4012,-89.0355,8.711,11111222 
WAVCIS,ioos:station:WAVCIS:CSI16:1,2010-11-06T23:00:00Z,29.4012,-89.0355,8.78,11111222 
WAVCIS,ioos:station:WAVCIS:CSI16:1,2010-11-07T00:00:00Z,29.4012,-89.0355,8.83,11111222 
WAVCIS,ioos:station:WAVCIS:CSI16:1,2010-11-07T01:00:00Z,29.4012,-89.0355,8.865,11111222 
WAVCIS,ioos:station:WAVCIS:CSI16:1,2010-11-07T02:00:00Z,29.4012,-89.0355,8.884,11111222 
WAVCIS,ioos:station:WAVCIS:CSI16:1,2010-11-07T03:00:00Z,29.4012,-89.0355,8.879,11111222 
WAVCIS,ioos:station:WAVCIS:CSI16:1,2010-11-07T04:00:00Z,29.4012,-89.0355,8.843,11111222 
WAVCIS,ioos:station:WAVCIS:CSI16:1,2010-11-07T05:00:00Z,29.4012,-89.0355,8.801,11111222 
WAVCIS,ioos:station:WAVCIS:CSI16:1,2010-11-07T06:00:00Z,29.4012,-89.0355,8.736,11111222 
WAVCIS,ioos:station:WAVCIS:CSI16:1,2010-11-07T07:00:00Z,29.4012,-89.0355,8.64,11111222 
WAVCIS,ioos:station:WAVCIS:CSI16:1,2010-11-07T08:00:00Z,29.4012,-89.0355,8.515,11111222 
WAVCIS,ioos:station:WAVCIS:CSI16:1,2010-11-07T09:00:00Z,29.4012,-89.0355,8.424,11111222 
WAVCIS,ioos:station:WAVCIS:CSI16:1,2010-11-07T10:00:00Z,29.4012,-89.0355,8.356,11111222 
WAVCIS,ioos:station:WAVCIS:CSI16:1,2010-11-07T11:00:00Z,29.4012,-89.0355,8.318,11111222 
WAVCIS,ioos:station:WAVCIS:CSI16:1,2010-11-07T12:00:00Z,29.4012,-89.0355,8.304,11111222 
WAVCIS,ioos:station:WAVCIS:CSI16:1,2010-11-07T13:00:00Z,29.4012,-89.0355,8.316,11111222 
WAVCIS,ioos:station:WAVCIS:CSI16:1,2010-11-07T14:00:00Z,29.4012,-89.0355,8.345,11111222 
WAVCIS,ioos:station:WAVCIS:CSI16:1,2010-11-07T15:00:00Z,29.4012,-89.0355,8.38,11111222 
WAVCIS,ioos:station:WAVCIS:CSI16:1,2010-11-07T16:00:00Z,29.4012,-89.0355,8.422,11111222 
WAVCIS,ioos:station:WAVCIS:CSI16:1,2010-11-07T17:00:00Z,29.4012,-89.0355,8.473,11111222 
WAVCIS,ioos:station:WAVCIS:CSI16:1,2010-11-07T18:00:00Z,29.4012,-89.0355,8.522,11111222 
WAVCIS,ioos:station:WAVCIS:CSI16:1,2010-11-07T19:00:00Z,29.4012,-89.0355,8.572,11111222 
WAVCIS,ioos:station:WAVCIS:CSI16:1,2010-11-07T20:00:00Z,29.4012,-89.0355,8.634,11111222 
WAVCIS,ioos:station:WAVCIS:CSI16:1,2010-11-07T21:00:00Z,29.4012,-89.0355,8.698,11111222 
WAVCIS,ioos:station:WAVCIS:CSI16:1,2010-11-07T22:00:00Z,29.4012,-89.0355,8.758,11111222 
WAVCIS,ioos:station:WAVCIS:CSI16:1,2010-11-07T23:00:00Z,29.4012,-89.0355,8.839,11111222 
WAVCIS,ioos:station:WAVCIS:CSI16:1,2010-11-08T00:00:00Z,29.4012,-89.0355,8.917,11111222 
WAVCIS,ioos:station:WAVCIS:CSI16:1,2010-11-08T01:00:00Z,29.4012,-89.0355,8.954,11111222 
WAVCIS,ioos:station:WAVCIS:CSI16:1,2010-11-08T02:00:00Z,29.4012,-89.0355,8.977,11111222 
WAVCIS,ioos:station:WAVCIS:CSI16:1,2010-11-08T03:00:00Z,29.4012,-89.0355,8.973,11111222 
WAVCIS,ioos:station:WAVCIS:CSI16:1,2010-11-08T04:00:00Z,29.4012,-89.0355,8.94,11111222 
WAVCIS,ioos:station:WAVCIS:CSI16:1,2010-11-08T05:00:00Z,29.4012,-89.0355,8.9,11111222 
WAVCIS,ioos:station:WAVCIS:CSI16:1,2010-11-08T06:00:00Z,29.4012,-89.0355,8.83,11111222 
WAVCIS,ioos:station:WAVCIS:CSI16:1,2010-11-08T07:00:00Z,29.4012,-89.0355,8.736,11111222 
WAVCIS,ioos:station:WAVCIS:CSI16:1,2010-11-08T08:00:00Z,29.4012,-89.0355,8.615,11111222 
WAVCIS,ioos:station:WAVCIS:CSI16:1,2010-11-08T09:00:00Z,29.4012,-89.0355,8.493,11111222 
WAVCIS,ioos:station:WAVCIS:CSI16:1,2010-11-08T10:00:00Z,29.4012,-89.0355,8.388,11111222 
WAVCIS,ioos:station:WAVCIS:CSI16:1,2010-11-08T11:00:00Z,29.4012,-89.0355,8.313,11111222 
WAVCIS,ioos:station:WAVCIS:CSI16:1,2010-11-08T12:00:00Z,29.4012,-89.0355,8.286,11111222 
WAVCIS,ioos:station:WAVCIS:CSI16:1,2010-11-08T13:00:00Z,29.4012,-89.0355,8.273,11111222 
WAVCIS,ioos:station:WAVCIS:CSI16:1,2010-11-08T14:00:00Z,29.4012,-89.0355,8.28,11111222 
WAVCIS,ioos:station:WAVCIS:CSI16:1,2010-11-08T15:00:00Z,29.4012,-89.0355,8.298,11111222 
WAVCIS,ioos:station:WAVCIS:CSI16:1,2010-11-08T16:00:00Z,29.4012,-89.0355,8.326,11111222 
WAVCIS,ioos:station:WAVCIS:CSI16:1,2010-11-08T17:00:00Z,29.4012,-89.0355,8.368,11111222 
WAVCIS,ioos:station:WAVCIS:CSI16:1,2010-11-08T18:00:00Z,29.4012,-89.0355,8.411,11111222 
WAVCIS,ioos:station:WAVCIS:CSI16:1,2010-11-08T19:00:00Z,29.4012,-89.0355,8.473,11111222 
WAVCIS,ioos:station:WAVCIS:CSI16:1,2010-11-08T20:00:00Z,29.4012,-89.0355,8.527,11111222 
WAVCIS,ioos:station:WAVCIS:CSI16:1,2010-11-08T21:00:00Z,29.4012,-89.0355,8.602,11111222 
WAVCIS,ioos:station:WAVCIS:CSI16:1,2010-11-08T22:00:00Z,29.4012,-89.0355,8.679,11111222 
WAVCIS,ioos:station:WAVCIS:CSI16:1,2010-11-08T23:00:00Z,29.4012,-89.0355,8.76,11111222 
WAVCIS,ioos:station:WAVCIS:CSI16:1,2010-11-09T00:00:00Z,29.4012,-89.0355,8.83,11111222 
WAVCIS,ioos:station:WAVCIS:CSI16:1,2010-11-09T01:00:00Z,29.4012,-89.0355,8.884,11111222 
WAVCIS,ioos:station:WAVCIS:CSI16:1,2010-11-09T02:00:00Z,29.4012,-89.0355,8.931,11111222 
WAVCIS,ioos:station:WAVCIS:CSI16:1,2010-11-09T03:00:00Z,29.4012,-89.0355,8.95,11111222 
WAVCIS,ioos:station:WAVCIS:CSI16:1,2010-11-09T04:00:00Z,29.4012,-89.0355,8.944,11111222 
WAVCIS,ioos:station:WAVCIS:CSI16:1,2010-11-09T05:00:00Z,29.4012,-89.0355,8.928,11111222 
WAVCIS,ioos:station:WAVCIS:CSI16:1,2010-11-09T06:00:00Z,29.4012,-89.0355,8.887,11111222 
WAVCIS,ioos:station:WAVCIS:CSI16:1,2010-11-09T07:00:00Z,29.4012,-89.0355,8.821,11111222 
WAVCIS,ioos:station:WAVCIS:CSI16:1,2010-11-09T08:00:00Z,29.4012,-89.0355,8.735,11111222 
WAVCIS,ioos:station:WAVCIS:CSI16:1,2010-11-09T09:00:00Z,29.4012,-89.0355,8.632,11111222 
WAVCIS,ioos:station:WAVCIS:CSI16:1,2010-11-09T10:00:00Z,29.4012,-89.0355,8.523,11111222 
WAVCIS,ioos:station:WAVCIS:CSI16:1,2010-11-09T11:00:00Z,29.4012,-89.0355,8.423,11111222 
WAVCIS,ioos:station:WAVCIS:CSI16:1,2010-11-09T12:00:00Z,29.4012,-89.0355,8.355,11111222 
WAVCIS,ioos:station:WAVCIS:CSI16:1,2010-11-09T13:00:00Z,29.4012,-89.0355,8.316,11111222 
WAVCIS,ioos:station:WAVCIS:CSI16:1,2010-11-09T14:00:00Z,29.4012,-89.0355,8.309,11111222 
WAVCIS,ioos:station:WAVCIS:CSI16:1,2010-11-09T15:00:00Z,29.4012,-89.0355,8.304,11111222 
WAVCIS,ioos:station:WAVCIS:CSI16:1,2010-11-09T16:00:00Z,29.4012,-89.0355,8.309,11111222 
WAVCIS,ioos:station:WAVCIS:CSI16:1,2010-11-09T17:00:00Z,29.4012,-89.0355,8.317,11111222 
WAVCIS,ioos:station:WAVCIS:CSI16:1,2010-11-09T18:00:00Z,29.4012,-89.0355,8.351,11111222 
WAVCIS,ioos:station:WAVCIS:CSI16:1,2010-11-09T19:00:00Z,29.4012,-89.0355,8.386,11111222 
WAVCIS,ioos:station:WAVCIS:CSI16:1,2010-11-09T20:00:00Z,29.4012,-89.0355,8.447,11111222 
WAVCIS,ioos:station:WAVCIS:CSI16:1,2010-11-09T21:00:00Z,29.4012,-89.0355,8.505,11111222 
WAVCIS,ioos:station:WAVCIS:CSI16:1,2010-11-09T22:00:00Z,29.4012,-89.0355,8.574,11111222 
WAVCIS,ioos:station:WAVCIS:CSI16:1,2010-11-09T23:00:00Z,29.4012,-89.0355,8.647,11111222 
WAVCIS,ioos:station:WAVCIS:CSI16:1,2010-11-10T00:00:00Z,29.4012,-89.0355,8.73,11111222 
WAVCIS,ioos:station:WAVCIS:CSI16:1,2010-11-10T01:00:00Z,29.4012,-89.0355,8.8,11111222 
WAVCIS,ioos:station:WAVCIS:CSI16:1,2010-11-10T02:00:00Z,29.4012,-89.0355,8.855,11111222 
WAVCIS,ioos:station:WAVCIS:CSI16:1,2010-11-10T03:00:00Z,29.4012,-89.0355,8.892,11111222 
WAVCIS,ioos:station:WAVCIS:CSI16:1,2010-11-10T04:00:00Z,29.4012,-89.0355,8.899,11111222 
WAVCIS,ioos:station:WAVCIS:CSI16:1,2010-11-10T05:00:00Z,29.4012,-89.0355,8.891,11111222 
WAVCIS,ioos:station:WAVCIS:CSI16:1,2010-11-10T06:00:00Z,29.4012,-89.0355,8.875,11111222 
WAVCIS,ioos:station:WAVCIS:CSI16:1,2010-11-10T07:00:00Z,29.4012,-89.0355,8.839,11111222 
WAVCIS,ioos:station:WAVCIS:CSI16:1,2010-11-10T08:00:00Z,29.4012,-89.0355,8.794,11111222 
WAVCIS,ioos:station:WAVCIS:CSI16:1,2010-11-10T09:00:00Z,29.4012,-89.0355,8.733,11111222 
WAVCIS,ioos:station:WAVCIS:CSI16:1,2010-11-10T10:00:00Z,29.4012,-89.0355,8.662,11111222 
WAVCIS,ioos:station:WAVCIS:CSI16:1,2010-11-10T11:00:00Z,29.4012,-89.0355,8.583,11111222 
WAVCIS,ioos:station:WAVCIS:CSI16:1,2010-11-10T12:00:00Z,29.4012,-89.0355,8.515,11111222 
WAVCIS,ioos:station:WAVCIS:CSI16:1,2010-11-10T13:00:00Z,29.4012,-89.0355,8.471,11111222 
WAVCIS,ioos:station:WAVCIS:CSI16:1,2010-11-10T14:00:00Z,29.4012,-89.0355,8.435,11111222 
WAVCIS,ioos:station:WAVCIS:CSI16:1,2010-11-10T15:00:00Z,29.4012,-89.0355,8.42,11111222 
WAVCIS,ioos:station:WAVCIS:CSI16:1,2010-11-10T16:00:00Z,29.4012,-89.0355,8.419,11111222 
WAVCIS,ioos:station:WAVCIS:CSI16:1,2010-11-10T17:00:00Z,29.4012,-89.0355,8.428,11111222 
WAVCIS,ioos:station:WAVCIS:CSI16:1,2010-11-10T18:00:00Z,29.4012,-89.0355,8.457,11111222 
WAVCIS,ioos:station:WAVCIS:CSI16:1,2010-11-10T19:00:00Z,29.4012,-89.0355,8.491,11111222 
WAVCIS,ioos:station:WAVCIS:CSI16:1,2010-11-10T20:00:00Z,29.4012,-89.0355,8.537,11111222 
WAVCIS,ioos:station:WAVCIS:CSI16:1,2010-11-10T21:00:00Z,29.4012,-89.0355,8.588,11111222 
WAVCIS,ioos:station:WAVCIS:CSI16:1,2010-11-10T22:00:00Z,29.4012,-89.0355,8.657,11111222 
WAVCIS,ioos:station:WAVCIS:CSI16:1,2010-11-10T23:00:00Z,29.4012,-89.0355,8.714,11111222 
WAVCIS,ioos:station:WAVCIS:CSI16:1,2010-11-11T00:00:00Z,29.4012,-89.0355,8.774,11111222 
WAVCIS,ioos:station:WAVCIS:CSI16:1,2010-11-11T01:00:00Z,29.4012,-89.0355,8.837,11111222 
WAVCIS,ioos:station:WAVCIS:CSI16:1,2010-11-11T02:00:00Z,29.4012,-89.0355,8.889,11111222 
WAVCIS,ioos:station:WAVCIS:CSI16:1,2010-11-11T03:00:00Z,29.4012,-89.0355,8.917,11111222 
WAVCIS,ioos:station:WAVCIS:CSI16:1,2010-11-11T04:00:00Z,29.4012,-89.0355,8.941,11111222 
WAVCIS,ioos:station:WAVCIS:CSI16:1,2010-11-11T05:00:00Z,29.4012,-89.0355,8.939,11111222 
WAVCIS,ioos:station:WAVCIS:CSI16:1,2010-11-11T06:00:00Z,29.4012,-89.0355,8.927,11111222 
WAVCIS,ioos:station:WAVCIS:CSI16:1,2010-11-11T07:00:00Z,29.4012,-89.0355,8.9,11111222 
WAVCIS,ioos:station:WAVCIS:CSI16:1,2010-11-11T08:00:00Z,29.4012,-89.0355,8.869,11111222 
WAVCIS,ioos:station:WAVCIS:CSI16:1,2010-11-11T09:00:00Z,29.4012,-89.0355,8.823,11111222 
WAVCIS,ioos:station:WAVCIS:CSI16:1,2010-11-11T10:00:00Z,29.4012,-89.0355,8.755,11111222 
WAVCIS,ioos:station:WAVCIS:CSI16:1,2010-11-11T11:00:00Z,29.4012,-89.0355,8.693,11111222 
WAVCIS,ioos:station:WAVCIS:CSI16:1,2010-11-11T12:00:00Z,29.4012,-89.0355,8.626,11111222 
WAVCIS,ioos:station:WAVCIS:CSI16:1,2010-11-11T13:00:00Z,29.4012,-89.0355,8.576,11111222 
WAVCIS,ioos:station:WAVCIS:CSI16:1,2010-11-11T14:00:00Z,29.4012,-89.0355,8.534,11111222 
WAVCIS,ioos:station:WAVCIS:CSI16:1,2010-11-11T15:00:00Z,29.4012,-89.0355,8.51,11111222 
WAVCIS,ioos:station:WAVCIS:CSI16:1,2010-11-11T16:00:00Z,29.4012,-89.0355,8.504,11111222 
WAVCIS,ioos:station:WAVCIS:CSI16:1,2010-11-11T17:00:00Z,29.4012,-89.0355,8.492,11111222 
WAVCIS,ioos:station:WAVCIS:CSI16:1,2010-11-11T18:00:00Z,29.4012,-89.0355,8.509,11111222 
WAVCIS,ioos:station:WAVCIS:CSI16:1,2010-11-11T19:00:00Z,29.4012,-89.0355,8.536,11111222 
WAVCIS,ioos:station:WAVCIS:CSI16:1,2010-11-11T20:00:00Z,29.4012,-89.0355,8.574,11111222 
WAVCIS,ioos:station:WAVCIS:CSI16:1,2010-11-11T21:00:00Z,29.4012,-89.0355,8.637,11111222 
WAVCIS,ioos:station:WAVCIS:CSI16:1,2010-11-11T22:00:00Z,29.4012,-89.0355,8.702,11111222 
WAVCIS,ioos:station:WAVCIS:CSI16:1,2010-11-11T23:00:00Z,29.4012,-89.0355,8.752,11111222 
WAVCIS,ioos:station:WAVCIS:CSI16:1,2010-11-12T00:00:00Z,29.4012,-89.0355,8.807,11111222 
WAVCIS,ioos:station:WAVCIS:CSI16:1,2010-11-12T01:00:00Z,29.4012,-89.0355,8.87,11111222 
WAVCIS,ioos:station:WAVCIS:CSI16:1,2010-11-12T02:00:00Z,29.4012,-89.0355,8.921,11111222 
WAVCIS,ioos:station:WAVCIS:CSI16:1,2010-11-12T03:00:00Z,29.4012,-89.0355,8.961,11111222 
WAVCIS,ioos:station:WAVCIS:CSI16:1,2010-11-12T04:00:00Z,29.4012,-89.0355,8.988,11111222 